"Pseudo-MPEC" for P10Hiee

Created 2018 Apr 17 21:18:06 UT using Find_Orb

Click here for an explanation of pseudo-MPECs

 
 Astrometry: 
     P10Hiee  C2018 04 12(9AstrometryE6F2w'UkUepx+%/^^q,kDW(([)_V1R!!RgxYCi4bF51
     P10Hiee  C2018 04 12:gn@FW$_)0PMg2/oHredacted;Y4'-YfseeEIU-cvU)v3a[q1C_xF51
     P10Hiee  C2018 04 12R;mUtN///ei)0l8q/4'l0nSldJW-cU9%InSwX,t'O#7A;cPNEOCPF51

Station data:
(F51) Pan-STARRS 1, Haleakala  (N20.707235 W156.255910)  US/Hawaii.
   Observers N. Primak, A. Schultz, S. Watters, J. Thiel, T. Goggia. Measurer
   PS1 Science Consortium. 1.8-m Ritchey-Chrétien + CCD.

Orbital elements:  P10Hiee
   Perihelion 2017 Oct 26.451996 +/- 88.9 TT = 10:50:52 (JD 2458052.951996)
Epoch 2018 Apr 12.0 TT = JDT 2458220.5   Earth MOID: 0.3988   Ma: 0.0069
M  97.73686 +/- 60                  (J2000 ecliptic)          AutoNEOCP
n   0.58333646 +/- 0.343            Peri.  266.01652 +/- 90
a   1.41858914 +/- 0.556            Node   192.04567 +/- 48
e   0.0743594 +/- 0.281             Incl.   28.78595 +/- 21
P   1.69/617.13d           H 22.1   G  0.15   U 12.0  SR
q 1.31310356 +/- 0.416    Q 1.52407471 +/- 28.3
From 3 observations 2018 Apr. 12 (37.3 min); mean residual 0".02
Residuals in arcseconds: 
180412 F51  .01-  .02-    180412 F51  .02+  .04+    180412 F51  .01-  .02-    

Ephemerides (geocentric):
Date (UTC) HH   RA              Dec         delta   r     elong  mag " sig PA
---- -- -- --  ------------   ------------  ------ ------ -----  --- ---- ---
2018 04 17 21  13 52 29.891   +13 13 09.32  .47025 1.4464 156.0 22.2  33d 173
2018 04 17 22  13 52 27.343   +13 15 19.68  .47039 1.4464 156.0 22.2  33d 173
2018 04 17 23  13 52 24.796   +13 17 29.89  .47053 1.4465 156.0 22.2  33d 173
2018 04 18 00  13 52 22.249   +13 19 39.97  .47068 1.4465 155.9 22.2  33d 174
2018 04 18 01  13 52 19.702   +13 21 49.90  .47082 1.4465 155.9 22.2  34d 174
2018 04 18 02  13 52 17.156   +13 23 59.69  .47096 1.4466 155.8 22.2  34d 175
2018 04 18 03  13 52 14.611   +13 26 09.34  .47111 1.4466 155.8 22.2  35d 176
2018 04 18 04  13 52 12.066   +13 28 18.85  .47125 1.4467 155.7 22.2  35d 177
2018 04 18 05  13 52 09.521   +13 30 28.21  .47140 1.4467 155.7 22.2  35d 177
2018 04 18 06  13 52 06.977   +13 32 37.43  .47154 1.4468 155.6 22.2  36d 177
2018 04 18 07  13 52 04.433   +13 34 46.51  .47169 1.4468 155.6 22.2  36d 177
2018 04 18 08  13 52 01.890   +13 36 55.45  .47183 1.4468 155.5 22.2  36d 177
2018 04 18 09  13 51 59.347   +13 39 04.24  .47198 1.4469 155.5 22.2  36d 177
2018 04 18 10  13 51 56.804   +13 41 12.89  .47213 1.4469 155.5 22.2  36d 177
2018 04 18 11  13 51 54.263   +13 43 21.39  .47228 1.4470 155.4 22.2  36d 176
2018 04 18 12  13 51 51.721   +13 45 29.75  .47242 1.4470 155.4 22.2  36d 176
2018 04 18 13  13 51 49.181   +13 47 37.97  .47257 1.4471 155.3 22.2  36d 176
2018 04 18 14  13 51 46.641   +13 49 46.04  .47272 1.4471 155.3 22.2  36d 176
2018 04 18 15  13 51 44.101   +13 51 53.97  .47287 1.4471 155.2 22.2  36d 176
2018 04 18 16  13 51 41.562   +13 54 01.75  .47302 1.4472 155.2 22.2  36d 176
2018 04 18 17  13 51 39.024   +13 56 09.39  .47317 1.4472 155.1 22.2  36d 175
2018 04 18 18  13 51 36.486   +13 58 16.88  .47332 1.4473 155.1 22.2  37d 175
2018 04 18 19  13 51 33.949   +14 00 24.23  .47347 1.4473 155.0 22.2  37d 175
2018 04 18 20  13 51 31.413   +14 02 31.43  .47362 1.4473 155.0 22.2  37d 175
2018 04 18 21  13 51 28.877   +14 04 38.48  .47377 1.4474 154.9 22.2  37d 175
2018 04 18 22  13 51 26.342   +14 06 45.39  .47393 1.4474 154.9 22.2  37d 175
2018 04 18 23  13 51 23.807   +14 08 52.15  .47408 1.4475 154.8 22.2  37d 175
2018 04 19 00  13 51 21.273   +14 10 58.76  .47423 1.4475 154.8 22.2  37d 175
2018 04 19 01  13 51 18.740   +14 13 05.23  .47439 1.4476 154.7 22.2  37d 174
2018 04 19 02  13 51 16.208   +14 15 11.55  .47454 1.4476 154.7 22.2  37d 174
2018 04 19 03  13 51 13.676   +14 17 17.73  .47469 1.4476 154.7 22.2  37d 174
2018 04 19 04  13 51 11.145   +14 19 23.75  .47485 1.4477 154.6 22.2  37d 174
2018 04 19 05  13 51 08.615   +14 21 29.63  .47500 1.4477 154.6 22.2  37d 174
2018 04 19 06  13 51 06.085   +14 23 35.36  .47516 1.4478 154.5 22.2  37d 174
2018 04 19 07  13 51 03.557   +14 25 40.94  .47532 1.4478 154.5 22.2  37d 174
2018 04 19 08  13 51 01.029   +14 27 46.38  .47547 1.4479 154.4 22.2  37d 174
2018 04 19 09  13 50 58.501   +14 29 51.66  .47563 1.4479 154.4 22.2  37d 174
2018 04 19 10  13 50 55.975   +14 31 56.80  .47579 1.4479 154.3 22.2  37d 174
2018 04 19 11  13 50 53.450   +14 34 01.79  .47594 1.4480 154.3 22.2  37d 174
2018 04 19 12  13 50 50.925   +14 36 06.63  .47610 1.4480 154.2 22.2  37d 174
2018 04 19 13  13 50 48.401   +14 38 11.32  .47626 1.4481 154.2 22.2  37d 174
2018 04 19 14  13 50 45.878   +14 40 15.86  .47642 1.4481 154.1 22.2  37d 174
2018 04 19 15  13 50 43.356   +14 42 20.25  .47658 1.4481 154.1 22.2  37d 174
2018 04 19 16  13 50 40.834   +14 44 24.49  .47674 1.4482 154.0 22.2  37d 174
2018 04 19 17  13 50 38.314   +14 46 28.58  .47690 1.4482 154.0 22.2  37d 174
2018 04 19 18  13 50 35.794   +14 48 32.52  .47706 1.4483 153.9 22.2  37d 174
2018 04 19 19  13 50 33.276   +14 50 36.31  .47722 1.4483 153.9 22.3  37d 175
2018 04 19 20  13 50 30.758   +14 52 39.95  .47738 1.4484 153.8 22.3  37d 175